[[{"header":{"parameterUnit":"m.s-1","parameterCategory":1,"la1":30.2991,"la2":30.254,"lo1":-89.0895,"lo2":-89.0444,"dy":0.0017,"dx":0.0017,"nx":28,"ny":28,"refTime":"2025-03-31T21:00:00:Z","depth":0,"parameterNumber":2,"parameterNumberName":"U-component_of_WINDS"},"data":[0,0,0,0,0,0,0,0,0,0,0,0,0,0,0,0,0,0,0,0,0,0,0,0,0,0,0,0,0,0,0,0,0,0,0,0,0,0,0,0,0,0,0,0,0,0,0,0,0,0,0,0,0,0,0,0,0,0,-3.6859,-3.686,0,-3.694,-3.6941,-3.6942,-3.6948,-3.6947,-3.6946,-3.6945,-3.7027,-3.703,-3.7032,0,0,0,0,0,0,0,0,0,0,0,0,0,-3.6709,-3.6712,-3.6859,-3.686,-3.6861,-3.694,-3.6941,-3.6942,-3.6948,-3.6947,-3.6946,-3.6945,-3.7026,-3.7029,-3.7033,0,0,0,0,0,0,0,0,0,0,0,0,0,-3.6781,-3.6713,-3.6859,-3.6874,-3.6876,-3.694,-3.6941,-3.6943,-3.6948,-3.6947,-3.6946,-3.6944,-3.7024,-3.7029,-3.7033,-3.7088,0,0,-3.7047,-3.7049,0,0,0,0,0,0,0,0,-3.6776,-3.6786,-3.6871,-3.6873,-3.6875,-3.6933,-3.6918,-3.6991,-3.6949,-3.6921,-3.6945,-3.6944,-3.6996,-3.7003,-3.7021,-3.7091,-3.7095,-3.7047,-3.705,-3.7052,-3.7053,0,0,0,0,0,0,0,-3.6772,-3.6783,-3.6891,-3.6872,-3.6875,-3.6876,-3.6885,-3.6932,-3.6965,-3.6923,-3.6924,-3.6933,-3.6997,-3.7017,-3.7023,-3.7096,-3.7047,-3.7051,-3.7054,-3.7056,-3.7214,-3.7216,0,0,0,0,0,0,-3.6764,-3.6778,-3.6889,-3.6894,-3.6822,-3.688,-3.689,-3.6916,-3.6965,-3.6971,-3.6934,-3.6933,-3.701,-3.7018,-3.7026,-3.7092,-3.7052,-3.7056,-3.7059,-3.7213,-3.7215,-3.7216,0,0,0,0,0,0,-3.6761,-3.6774,-3.6885,-3.6836,-3.6851,-3.6884,-3.6913,-3.6918,-3.6937,-3.6973,-3.6979,-3.6948,-3.7009,-3.702,-3.7072,-3.7095,-3.7058,-3.7062,-3.7211,-3.7213,-3.7216,-3.7224,0,0,0,0,0,0,-3.6756,-3.6772,-3.6793,-3.6837,-3.6853,-3.693,-3.6915,-3.692,-3.6945,-3.6944,-3.6987,-3.6993,-3.7009,-3.7065,-3.7077,-3.71,-3.7066,-3.7209,-3.7212,-3.7215,-3.7222,-3.7226,-3.723,0,0,0,0,0,-3.6751,-3.6792,-3.6795,-3.6808,-3.688,-3.6932,-3.6941,-3.6958,-3.6947,-3.6968,-3.6991,-3.6992,-3.7091,-3.7071,-3.7083,-3.7108,-3.7208,-3.7211,-3.7215,-3.722,-3.7225,-3.723,0,0,0,0,0,0,-3.675,-3.6798,-3.6801,-3.6858,-3.6891,-3.6933,-3.696,-3.6964,-3.7,-3.6998,-3.7018,-3.7028,-3.7079,-3.71,-3.7076,-3.7164,-3.7148,-3.7154,-3.7148,-3.7153,-3.7157,-3.715,-3.7069,0,0,0,0,0,-3.6757,-3.6795,-3.6835,-3.6881,-3.6898,-3.6926,-3.6949,-3.696,-3.6994,-3.7008,-3.7035,-3.7068,-3.7107,-3.7132,-3.7169,-3.7226,-3.7235,-3.725,-3.7254,-3.7257,-3.7261,-3.7292,-3.7298,-3.7228,-3.7228,-3.7228,0,0,-3.6771,-3.6802,-3.6824,-3.6882,-3.6909,-3.6947,-3.6937,-3.6979,-3.7007,-3.7014,-3.7065,-3.7086,-3.7125,-3.7179,-3.7205,-3.7198,-3.7283,-3.7261,-3.7264,-3.7266,-3.7296,-3.7303,-3.7308,-3.723,-3.723,-3.7229,0,0,-3.6815,-3.6843,-3.6884,-3.6911,-3.6952,-3.6971,-3.6981,-3.7022,-3.7037,-3.7088,-3.7094,-3.7129,-3.7195,-3.7222,-3.7244,-3.73,-3.7301,-3.7312,-3.7332,-3.7362,-3.7368,-3.7373,-3.7391,-3.7397,-3.7317,-3.7317,-3.7317,0,-3.6826,-3.6884,-3.6904,-3.6945,-3.697,-3.698,-3.7021,-3.7046,-3.7097,-3.7114,-3.7106,-3.7189,-3.7216,-3.7276,-3.729,-3.7309,-3.732,-3.7306,-3.7366,-3.7371,-3.7376,-3.7393,-3.74,-3.7318,-3.7317,-3.7317,-3.7317,0,-3.6896,-3.6937,-3.6965,-3.7014,-3.7042,-3.7083,-3.7109,-3.7135,-3.7145,-3.7164,-3.7216,-3.7249,-3.7293,-3.7309,-3.7318,-3.7371,-3.7365,-3.7362,-3.7346,-3.7383,-3.74,-3.7407,-3.7319,-3.7318,-3.7318,-3.7318,0,0,-3.6939,-3.7,-3.701,-3.7032,-3.7078,-3.711,-3.7152,-3.7195,-3.7217,-3.7253,-3.7287,-3.7344,-3.734,-3.7366,-3.7378,-3.7405,-3.7445,-3.7398,-3.7399,-3.7404,-3.7504,-3.7505,-3.7512,-3.7448,-3.7449,-3.745,-3.75,0,-3.6987,-3.7061,-3.7081,-3.7144,-3.7181,-3.7191,-3.7227,-3.726,-3.7279,-3.7314,-3.7336,-3.7375,-3.7369,-3.7384,-3.7411,-3.7434,-3.7465,-3.7432,-3.7479,-3.748,-3.7466,-3.7522,-3.7523,-3.7568,-3.7507,-3.7508,-3.7509,0,-3.7052,-3.7089,-3.7155,-3.7197,-3.7213,-3.7245,-3.7287,-3.732,-3.7357,-3.737,-3.7399,-3.7409,-3.7452,-3.7437,-3.7496,-3.7473,-3.7494,-3.7509,-3.7511,-3.7514,-3.7495,-3.7524,-3.7583,-3.7589,-3.752,-3.7519,-3.7518,0,-3.7075,-3.7141,-3.7189,-3.7209,-3.7259,-3.7281,-3.7303,-3.7338,-3.7363,-3.74,-3.7416,-3.7458,-3.748,-3.7511,-3.7532,-3.7519,-3.759,-3.7576,-3.76,-3.76,-3.7612,-3.7611,-3.7673,-3.763,-3.763,-3.763,-3.763,0,-3.7124,-3.7164,-3.72,-3.7229,-3.7274,-3.7297,-3.7341,-3.7363,-3.7395,-3.7429,-3.7441,-3.7472,-3.7499,-3.7534,-3.7551,-3.7597,-3.7608,-3.7618,-3.7622,-3.7616,-3.7614,-3.7628,-3.7625,-3.7632,-3.7631,-3.7631,-3.763,0,-3.7156,-3.7182,-3.7235,-3.7279,-3.7291,-3.7322,-3.7359,-3.7387,-3.7409,-3.7451,-3.7462,-3.7495,-3.7537,-3.7562,-3.7615,-3.7626,-3.7677,-3.768,-3.7664,-3.7665,-3.7687,-3.7684,-3.7759,-3.7769,-3.7721,-3.7721,-3.7721,0,-3.7185,-3.7216,-3.7263,-3.7286,-3.7309,-3.7347,-3.7372,-3.7396,-3.7422,-3.7467,-3.7491,-3.7533,-3.7568,-3.7635,-3.7663,-3.7704,-3.7707,-3.773,-3.7713,-3.7706,-3.7705,-3.7702,-3.7704,-3.7732,-3.7733,-3.7733,-3.7733,0,-3.7233,-3.7244,-3.7281,-3.7322,-3.7353,-3.7386,-3.742,-3.7439,-3.7468,-3.7497,-3.754,-3.7568,-3.7622,-3.7664,-3.7707,-3.7729,-3.7736,-3.7739,-3.7747,-3.7739,-3.7728,-3.7733,-3.7669,-3.7737,-3.7736,-3.7736,-3.7736,-3.7736,-3.7263,-3.729,-3.7328,-3.7368,-3.7396,-3.7427,-3.7456,-3.7481,-3.7518,-3.7564,-3.7576,-3.7621,-3.7658,-3.7716,-3.774,-3.7775,-3.7771,-3.7782,-3.7785,-3.7787,-3.7786,-3.7725,-3.7783,-3.7783,-3.7783,-3.7783,-3.7783,0,-3.731,-3.7334,-3.7372,-3.7418,-3.745,-3.7455,-3.7492,-3.7518,-3.7558,-3.7592,-3.7626,-3.7676,-3.7717,-3.7749,-3.7791,-3.7813,-3.7817,-3.7823,-3.782,-3.7825,-3.7788,-3.7776,-3.7819,-3.7819,-3.7819,-3.7819,-3.7819,-3.7819,-3.7337,-3.7384,-3.74,-3.7461,-3.7486,-3.753,-3.755,-3.7579,-3.7606,-3.7661,-3.7695,-3.7716,-3.7749,-3.7794,-3.7832,-3.784,-3.7854,-3.7859,-3.7868,-3.7832,-3.7828,-3.7824,-3.7813,-3.7863,-3.7863,-3.7902,-3.7902,-3.7902]},{"header":{"parameterUnit":"m.s-1","parameterCategory":1,"la1":30.2991,"la2":30.254,"lo1":-89.0895,"lo2":-89.0444,"dy":0.0017,"dx":0.0017,"nx":28,"ny":28,"refTime":"2025-03-31T21:00:00:Z","depth":0,"parameterNumber":3,"parameterNumberName":"V-component_of_WINDS"},"data":[0,0,0,0,0,0,0,0,0,0,0,0,0,0,0,0,0,0,0,0,0,0,0,0,0,0,0,0,0,0,0,0,0,0,0,0,0,0,0,0,0,0,0,0,0,0,0,0,0,0,0,0,0,0,0,0,0,0,4.2756,4.2756,0,4.277,4.277,4.277,4.2746,4.2745,4.2744,4.2743,4.2757,4.2758,4.2759,0,0,0,0,0,0,0,0,0,0,0,0,0,4.2706,4.2707,4.2756,4.2756,4.2756,4.277,4.277,4.277,4.2746,4.2745,4.2744,4.2743,4.2756,4.2758,4.2759,0,0,0,0,0,0,0,0,0,0,0,0,0,4.2725,4.2707,4.2755,4.2745,4.2745,4.277,4.277,4.2771,4.2746,4.2745,4.2744,4.2743,4.2756,4.2757,4.2759,4.2794,0,0,4.2764,4.2765,0,0,0,0,0,0,0,0,4.2723,4.2726,4.2747,4.2746,4.2745,4.2755,4.2758,4.2778,4.2747,4.2746,4.2743,4.2742,4.2757,4.2758,4.2764,4.2795,4.2796,4.2764,4.2765,4.2766,4.2767,0,0,0,0,0,0,0,4.2722,4.2726,4.2761,4.2747,4.2746,4.274,4.2741,4.2761,4.2758,4.2746,4.2744,4.2746,4.2756,4.2762,4.2764,4.2796,4.2764,4.2766,4.2767,4.2768,4.2858,4.2859,0,0,0,0,0,0,4.2722,4.2725,4.2761,4.2762,4.2731,4.2742,4.2743,4.2753,4.2758,4.2757,4.2747,4.2745,4.276,4.2762,4.2764,4.2807,4.2766,4.2768,4.2769,4.2857,4.2858,4.286,0,0,0,0,0,0,4.2721,4.2726,4.276,4.2743,4.2747,4.2744,4.2755,4.2754,4.276,4.2759,4.2758,4.2754,4.2759,4.2762,4.2788,4.2807,4.2769,4.277,4.2855,4.2857,4.2859,4.2892,0,0,0,0,0,0,4.272,4.2726,4.2739,4.2743,4.2748,4.2783,4.2756,4.2755,4.2763,4.276,4.2765,4.2765,4.2758,4.2785,4.2789,4.2809,4.2771,4.2853,4.2856,4.2858,4.2889,4.2895,4.29,0,0,0,0,0,4.2718,4.2747,4.274,4.2744,4.2765,4.2785,4.2787,4.278,4.2765,4.2778,4.2778,4.2764,4.2804,4.2788,4.2792,4.2813,4.2852,4.2855,4.2858,4.2887,4.2894,4.29,0,0,0,0,0,0,4.2744,4.2747,4.2739,4.277,4.2778,4.278,4.2797,4.2787,4.2798,4.2795,4.2785,4.2787,4.2814,4.2816,4.2798,4.2848,4.2826,4.283,4.2846,4.2852,4.2858,4.2857,4.2773,0,0,0,0,0,4.2753,4.277,4.2772,4.2799,4.2803,4.28,4.2808,4.2802,4.2809,4.2811,4.2813,4.2819,4.2834,4.2843,4.2856,4.2889,4.289,4.2905,4.2911,4.2915,4.2919,4.2938,4.2945,4.287,4.287,4.287,0,0,4.2772,4.2776,4.2787,4.2804,4.2809,4.2826,4.2802,4.2821,4.2834,4.2814,4.2839,4.284,4.2847,4.2877,4.289,4.2879,4.294,4.2919,4.2923,4.2924,4.2942,4.2949,4.2955,4.2872,4.2872,4.2872,0,0,4.2817,4.2821,4.2845,4.2851,4.2859,4.2857,4.2862,4.2867,4.2868,4.2893,4.2879,4.2893,4.2918,4.2924,4.293,4.2978,4.2966,4.2982,4.301,4.3029,4.3035,4.304,4.3058,4.3064,4.2986,4.2986,4.2986,0,4.2839,4.2865,4.2858,4.2879,4.2887,4.2871,4.2895,4.2901,4.2912,4.2918,4.2906,4.2937,4.294,4.2972,4.2984,4.2989,4.2996,4.2982,4.3034,4.304,4.3044,4.3061,4.3068,4.2988,4.2988,4.2988,4.2987,0,4.2893,4.2911,4.293,4.2943,4.2953,4.2975,4.2971,4.2982,4.2976,4.2975,4.3001,4.3005,4.3019,4.3026,4.3019,4.3057,4.305,4.3036,4.3014,4.3053,4.3069,4.3076,4.2991,4.299,4.299,4.2989,0,0,4.2953,4.2963,4.297,4.2976,4.2985,4.2999,4.302,4.3035,4.3045,4.3054,4.3072,4.3094,4.3082,4.3089,4.3083,4.3099,4.3138,4.3083,4.3083,4.3094,4.3181,4.3191,4.3199,4.313,4.3131,4.3132,4.318,0,4.2998,4.3036,4.3031,4.3068,4.3085,4.3071,4.309,4.3097,4.3097,4.3112,4.3111,4.3127,4.311,4.3114,4.313,4.313,4.3155,4.3126,4.3147,4.3148,4.3146,4.3207,4.3218,4.3263,4.3187,4.3188,4.3188,0,4.3055,4.3067,4.3106,4.3113,4.312,4.3138,4.3151,4.3165,4.3173,4.3172,4.3181,4.3173,4.3194,4.3172,4.3202,4.3183,4.3191,4.3192,4.3194,4.3196,4.3171,4.3211,4.3278,4.3285,4.3198,4.3197,4.3196,0,4.3096,4.3122,4.3149,4.3155,4.3164,4.3176,4.318,4.3188,4.3197,4.3209,4.3215,4.3229,4.3236,4.3247,4.3243,4.3226,4.3274,4.3251,4.3274,4.3274,4.3285,4.3284,4.3354,4.3289,4.3289,4.3289,4.3289,0,4.3146,4.3171,4.3168,4.3185,4.3212,4.3206,4.3233,4.3235,4.3242,4.3259,4.3247,4.3263,4.3255,4.3271,4.3267,4.3293,4.3297,4.3297,4.3295,4.3298,4.3298,4.3303,4.33,4.3291,4.3291,4.329,4.329,0,4.3197,4.3196,4.3224,4.3231,4.3233,4.3253,4.3259,4.3274,4.3274,4.3296,4.33,4.33,4.3317,4.3314,4.3333,4.3331,4.3364,4.3358,4.3361,4.336,4.3384,4.3382,4.346,4.347,4.3398,4.3399,4.34,0,4.323,4.3249,4.3258,4.3269,4.3274,4.3292,4.3302,4.3297,4.3308,4.3319,4.3334,4.3351,4.3364,4.3393,4.3394,4.3409,4.3404,4.343,4.3406,4.3408,4.3405,4.3404,4.3406,4.3435,4.3436,4.3436,4.3437,0,4.3288,4.3287,4.3303,4.3319,4.3331,4.3343,4.3354,4.3363,4.3359,4.3372,4.3391,4.3401,4.3421,4.3438,4.3452,4.3456,4.3446,4.3445,4.3451,4.3454,4.3455,4.3456,4.3375,4.3443,4.3442,4.3442,4.3441,4.3441,4.3332,4.3348,4.3358,4.3376,4.3384,4.3394,4.341,4.3412,4.3428,4.3444,4.344,4.3461,4.347,4.3488,4.3493,4.351,4.35,4.3509,4.3511,4.3514,4.3517,4.3452,4.3512,4.3512,4.3512,4.3512,4.3511,0,4.3391,4.3396,4.3413,4.3429,4.3444,4.3434,4.3445,4.3458,4.3477,4.3486,4.35,4.3521,4.3538,4.3541,4.3557,4.3569,4.3565,4.3574,4.3573,4.3574,4.3524,4.3518,4.3577,4.3577,4.3577,4.3577,4.3577,4.3577,4.3423,4.3451,4.3451,4.3483,4.3489,4.351,4.3518,4.3528,4.3535,4.356,4.3575,4.3577,4.3583,4.36,4.3615,4.3615,4.3622,4.3632,4.3631,4.3584,4.3578,4.3571,4.3565,4.3634,4.3634,4.368,4.368,4.368]}]]